Tracking 35274 objects as of 10-Sep-2026
HD Live streaming from Space Station
objects crossing your sky now

RESURS F-1 DEB


RESURS F-1 DEB is no longer on orbit


NORAD ID: 20079
Int'l Code: 1989-038H
Launch date: May 25, 1989
Source: Commonwealth of Independent States (former USSR) (CIS)
Launch site: PLESETSK MISSILE AND SPACE COMPLEX (PKMTR)
Decay date: 1989-07-02

Note: This is SATELLITE DEBRIS
Your satellite tracking list
Your tracking list is empty




NASA's NSSDC Master Catalog

Two Line Element Set (TLE):
1 20079U 89038  H 89183.25592429  .10696073 +97762-5 +17811-3 0  9992
2 20079 082.2803 357.4593 0011598 251.9322 108.2568 16.47398638006109
Source of the keplerian elements: AFSPC